{"data":{"norad_id":60494,"intl_designator":"2024-149AC","name":"FLOCK 4BE-22","alt_names":[],"object_type":"PAYLOAD","status":"ACTIVE","operator":null,"country":"US","launch_date":"2024-08-16","launch_site_code":"AFWTR","launch_vehicle":null,"mission":null,"orbit_class":"UNKNOWN","rcs_meters":null,"size_class":null,"mass_kg":null,"dimensions":null,"purposes":["earth_obs"],"wikipedia_slug":null,"has_3d_model":false,"image_url":null,"decayed_at":null,"tle_current":{"epoch":"2026-05-25T05:05:28.703328Z","epoch_age_seconds":56477,"freshness":"FRESH","line1":"1 60494U 24149AC  26145.21213777  .00015159  00000+0  37706-3 0  9997","line2":"2 60494  97.3732 228.5693 0003014  20.2288 339.9077 15.40374937 98762","mean_motion":15.40374937,"eccentricity":0.0003014,"inclination_deg":97.3732,"raan_deg":228.5693,"arg_perigee_deg":20.2288,"mean_anomaly_deg":339.9077,"bstar":0.00037706,"rev_number":9876,"period_min":93.483733434699,"perigee_km":442.94540251711,"apogee_km":447.05839064397,"semimajor_km":6823.1388965805,"source":"CELESTRAK","updated_at":"2026-05-25T13:38:13.304432Z"}}}